Location: Unspecified
(0.0000°N, 0.0000°E)
Time: 04:25:50
(UTC+00:00)

Tiangong 1 - Pass Details

Date: 20 November 2017
Orbit: 285 x 308 km, 42.8° (Epoch: 20 November)

Event Time Altitude Azimuth Distance (km) Brightness Sun altitude
Exits shadow 04:48:50 18° 347° (NNW) 804 2.4 -13.3°
Maximum altitude 04:50:19 35° 45° (NE) 490 1.8 -13.0°
Drops below altitude 10° 04:52:41 10° 114° (ESE) 1,136 5.0 -12.4°
Sets 04:54:43 0° 124° (SE) 1,962 6.4 -12.0°
